QPF
0.00 0.00 0.00 0.00 0.00 0.00 0.00 0.00 0.00 0.00 0.00 0.00 0.00 0.00 0.00 0.00 0.00 0.00 0.00 0.00 0.00 0.00 0.00 0.00 0.00 0.00 0.00 0.00 0.05 0.00 0.00 0.02
0.00 0.00 0.00 0.00 0.00 0.00 0.00 0.00 0.00 0.00 0.00 0.00 0.00 0.00 0.00 0.00 0.00 0.00 0.00 0.00 0.00 0.00 0.00 0.00 0.00 0.03 0.03 0.02 0.04 0.05 0.02 0.00
0.00 0.00 0.00 0.00 0.00 0.00 0.00 0.00 0.00 0.00 0.00 0.00 0.00 0.00 0.00 0.00 0.00 0.00 0.00 0.00 0.00 0.00 0.00 0.00 0.00 0.00 0.02 0.03 0.04 0.04 0.06 0.00
0.00 0.00 0.00 0.00 0.00 0.00 0.00 0.00 0.00 0.00 0.00 0.00 0.00 0.00 0.00 0.00 0.00 0.00 0.00 0.00 0.00 0.00 0.00 0.00 0.00 0.00 0.00 0.06 0.03 0.00 0.02 0.00
0.00 0.00 0.00 0.00 0.00 0.00 0.00 0.00 0.00 0.00 0.00 0.00 0.00 0.00 0.00 0.00 0.00 0.00 0.00 0.00 0.00 0.00 0.00 0.00 0.00 0.00 0.01 0.08 0.02 0.00 0.00 0.00
0.00 0.00 0.00 0.00 0.00 0.00 0.00 0.00 0.00 0.00 0.00 0.00 0.00 0.00 0.00 0.00 0.00 0.00 0.00 0.00 0.00 0.00 0.00 0.00 0.00 0.00 0.00 0.01 0.01 0.00 0.00 0.00
0.00 0.00 0.00 0.00 0.00 0.00 0.00 0.00 0.00 0.00 0.00 0.00 0.00 0.00 0.00 0.00 0.00 0.00 0.00 0.00 0.00 0.00 0.00 0.00 0.00 0.00 0.00 0.01 0.00 0.00 0.00 0.00
0.00 0.00 0.00 0.00 0.00 0.00 0.00 0.00 0.00 0.00 0.00 0.00 0.00 0.00 0.00 0.00 0.00 0.00 0.00 0.00 0.00 0.00 0.00 0.01 0.08 0.11 0.16 0.15 0.05 0.00 0.00 0.00
0.00 0.00 0.00 0.00 0.00 0.00 0.00 0.00 0.00 0.00 0.00 0.00 0.00 0.00 0.00 0.00 0.00 0.00 0.00 0.00 0.00 0.00 0.00 0.00 0.02 0.02 0.04 0.08 0.02 0.00 0.00 0.00
0.00 0.00 0.00 0.00 0.00 0.00 0.00 0.00 0.00 0.00 0.00 0.00 0.00 0.00 0.00 0.00 0.00 0.00 0.00 0.04 0.03 0.01 0.00 0.01 0.00 0.00 0.01 0.02 0.01 0.00 0.00 0.00
0.00 0.00 0.01 0.02 0.05 0.02 0.01 0.00 0.00 0.00 0.00 0.00 0.00 0.00 0.00 0.00 0.00 0.00 0.00 0.04 0.07 0.01 0.00 0.00 0.01 0.00 0.01 0.03 0.02 0.00 0.00 0.00
0.00 0.00 0.02 0.06 0.05 0.04 0.03 0.02 0.01 0.00 0.00 0.00 0.00 0.01 0.02 0.02 0.01 0.01 0.00 0.02 0.08 0.04 0.00 0.00 0.02 0.02 0.07 0.15 0.06 0.01 0.00 0.00
0.00 0.00 0.00 0.06 0.05 0.04 0.03 0.02 0.02 0.01 0.01 0.00 0.00 0.02 0.10 0.14 0.13 0.09 0.03 0.04 0.10 0.07 0.00 0.01 0.01 0.00 0.03 0.12 0.10 0.05 0.01 0.00
0.00 0.00 0.00 0.00 0.00 0.01 0.01 0.00 0.00 0.00 0.00 0.00 0.01 0.02 0.06 0.10 0.10 0.12 0.07 0.04 0.03 0.03 0.01 0.01 0.00 0.00 0.00 0.02 0.06 0.11 0.05 0.00
0.00 0.00 0.00 0.00 0.00 0.00 0.00 0.00 0.00 0.00 0.00 0.00 0.00 0.01 0.03 0.06 0.10 0.09 0.04 0.02 0.02 0.03 0.02 0.01 0.01 0.00 0.00 0.00 0.01 0.05 0.02 0.01
0.00 0.00 0.00 0.00 0.00 0.00 0.00 0.00 0.00 0.00 0.00 0.00 0.02 0.03 0.04 0.05 0.06 0.08 0.07 0.05 0.05 0.05 0.02 0.01 0.01 0.01 0.00 0.00 0.00 0.00 0.00 0.00
0.00 0.00 0.00 0.00 0.00 0.00 0.00 0.00 0.00 0.00 0.00 0.01 0.02 0.01 0.02 0.03 0.04 0.07 0.06 0.06 0.06 0.05 0.03 0.01 0.01 0.01 0.01 0.00 0.00 0.00 0.00 0.00
0.00 0.00 0.00 0.00 0.00 0.00 0.00 0.00 0.00 0.00 0.00 0.02 0.04 0.02 0.01 0.02 0.03 0.05 0.07 0.07 0.07 0.06 0.02 0.01 0.01 0.01 0.01 0.01 0.00 0.00 0.00 0.00
0.00 0.00 0.00 0.00 0.00 0.00 0.00 0.00 0.00 0.02 0.03 0.03 0.03 0.02 0.01 0.01 0.02 0.03 0.07 0.10 0.06 0.06 0.03 0.01 0.01 0.01 0.01 0.02 0.03 0.02 0.00 0.00
0.00 0.00 0.00 0.00 0.00 0.00 0.00 0.00 0.00 0.01 0.03 0.02 0.01 0.01 0.00 0.01 0.02 0.02 0.04 0.12 0.08 0.05 0.02 0.01 0.01 0.01 0.02 0.04 0.11 0.11 0.04 0.02
MSLP
1008.01 1008.53 1008.89 1009.33 1009.62 1010.12 1010.62 1011.07 1011.54 1011.93 1012.21 1012.41 1012.84 1013.07 1013.42 1013.86 1014.19 1014.39 1014.77 1015.14 1015.46 1015.56 1015.53 1015.66 1016.11 1016.97 1017.12 1017.01 1017.77 1018.05 1018.45 1018.86
1007.86 1008.38 1008.77 1009.23 1009.70 1009.89 1010.34 1010.80 1011.31 1011.77 1012.15 1012.36 1012.79 1013.21 1013.42 1013.88 1014.23 1014.43 1014.77 1015.10 1015.43 1015.72 1015.72 1015.92 1016.08 1017.01 1017.11 1017.48 1017.99 1018.21 1018.60 1018.96
1008.16 1008.50 1008.79 1009.10 1009.59 1010.01 1010.25 1010.68 1011.18 1011.61 1011.91 1012.38 1012.67 1013.31 1013.53 1013.93 1014.29 1014.38 1014.68 1015.03 1015.27 1015.65 1015.76 1015.97 1016.05 1016.60 1016.76 1017.63 1018.14 1018.39 1018.73 1019.01
1008.06 1008.38 1008.76 1009.11 1009.43 1009.99 1010.35 1010.60 1010.96 1011.42 1011.66 1012.25 1012.64 1013.14 1013.50 1013.77 1014.27 1014.42 1014.72 1014.93 1015.16 1015.54 1015.91 1016.02 1016.10 1016.27 1016.93 1017.51 1018.08 1018.29 1018.85 1019.20
1007.56 1007.82 1008.32 1008.88 1009.28 1009.79 1010.31 1010.58 1010.83 1011.17 1011.36 1011.87 1012.54 1013.03 1013.55 1013.75 1014.28 1014.51 1014.92 1015.13 1015.35 1015.57 1016.01 1016.06 1016.21 1016.36 1017.06 1017.84 1017.90 1018.29 1018.76 1019.14
1006.65 1007.29 1007.80 1008.39 1008.79 1009.46 1009.91 1010.43 1010.68 1010.98 1011.23 1011.50 1012.04 1012.57 1013.35 1013.59 1013.97 1014.27 1014.74 1015.08 1015.45 1015.67 1016.15 1016.31 1016.39 1016.43 1016.78 1017.47 1017.89 1018.22 1018.83 1019.09
1006.08 1006.64 1007.25 1007.93 1008.52 1008.92 1009.57 1010.05 1010.39 1010.63 1011.09 1011.25 1011.51 1012.03 1012.76 1013.24 1013.74 1014.05 1014.39 1014.92 1015.26 1015.59 1016.08 1016.53 1016.66 1016.86 1017.06 1017.55 1017.71 1018.02 1018.64 1018.98
1005.39 1005.92 1006.41 1007.16 1007.97 1008.41 1008.92 1009.57 1009.94 1010.34 1010.65 1010.87 1011.39 1011.63 1012.07 1012.85 1013.56 1013.92 1014.20 1014.65 1014.98 1015.41 1015.92 1016.35 1016.64 1017.11 1017.41 1018.01 1018.19 1018.21 1018.57 1018.97
1004.91 1005.26 1005.83 1006.38 1006.97 1007.71 1008.28 1008.66 1009.11 1009.85 1010.21 1010.64 1010.94 1011.40 1011.78 1012.38 1013.10 1013.58 1013.88 1014.31 1014.76 1015.26 1015.86 1016.18 1016.59 1016.91 1017.23 1017.79 1018.17 1018.24 1018.57 1019.12
1004.01 1004.53 1005.19 1005.60 1006.15 1006.80 1007.64 1008.28 1008.68 1009.08 1009.47 1010.05 1010.51 1010.92 1011.50 1012.01 1012.70 1013.12 1013.43 1014.00 1014.55 1014.97 1015.65 1016.22 1016.64 1016.97 1017.26 1017.51 1017.99 1018.23 1018.52 1019.08
1003.27 1003.85 1004.47 1005.00 1005.74 1006.36 1007.11 1007.68 1008.19 1008.53 1008.83 1009.23 1009.80 1010.43 1010.88 1011.40 1012.06 1012.59 1013.07 1013.70 1014.24 1014.81 1015.36 1015.68 1016.36 1016.81 1017.08 1017.59 1017.79 1018.23 1018.49 1018.98
1002.65 1003.33 1004.22 1004.87 1005.39 1006.13 1006.90 1007.41 1007.91 1008.09 1008.48 1008.79 1008.95 1009.60 1010.18 1010.73 1011.24 1011.90 1012.37 1013.28 1014.06 1014.57 1015.10 1015.51 1015.82 1016.38 1016.96 1017.47 1017.78 1018.26 1018.49 1018.79
1002.51 1003.41 1004.41 1005.18 1005.90 1006.35 1006.91 1007.45 1007.72 1007.77 1008.06 1008.08 1008.43 1008.78 1009.32 1010.11 1010.77 1011.24 1011.85 1012.46 1013.26 1014.08 1014.93 1015.51 1015.93 1016.34 1017.17 1017.75 1018.31 1018.28 1018.57 1019.01
1002.77 1003.41 1004.06 1004.71 1005.20 1005.57 1005.99 1006.59 1006.97 1007.18 1007.60 1007.75 1007.87 1008.26 1008.60 1009.34 1010.21 1010.92 1011.34 1012.06 1012.77 1013.61 1014.29 1015.07 1015.73 1016.03 1016.61 1017.32 1017.60 1018.57 1018.54 1018.69
1003.06 1003.58 1004.16 1004.61 1004.79 1005.39 1006.07 1006.48 1006.74 1007.09 1007.38 1007.50 1007.62 1007.89 1008.19 1008.70 1009.39 1010.12 1010.74 1011.44 1011.80 1012.74 1013.59 1014.12 1014.73 1015.50 1015.67 1016.04 1016.84 1017.18 1017.95 1018.39
1003.53 1003.94 1004.40 1004.65 1004.85 1005.42 1005.80 1006.12 1006.38 1006.30 1006.28 1006.65 1006.97 1007.33 1007.67 1008.00 1008.71 1009.40 1009.95 1010.67 1011.27 1011.73 1012.67 1013.16 1013.81 1014.46 1015.20 1015.18 1015.17 1015.77 1016.56 1017.74
1003.32 1003.34 1003.58 1004.06 1004.67 1005.07 1005.69 1006.11 1006.13 1005.99 1005.93 1006.17 1006.50 1006.78 1007.00 1007.31 1007.95 1008.83 1009.39 1009.86 1010.40 1010.96 1011.74 1012.57 1013.03 1013.35 1013.68 1014.57 1014.93 1015.18 1015.18 1015.71
1003.24 1003.43 1003.31 1004.05 1004.95 1005.20 1005.56 1005.87 1005.98 1006.09 1006.14 1006.19 1006.34 1006.41 1006.51 1006.64 1007.31 1007.92 1008.50 1009.01 1009.70 1010.32 1011.00 1011.68 1012.30 1012.71 1013.00 1013.53 1013.69 1014.15 1014.21 1014.55
1003.34 1003.72 1004.50 1005.47 1005.25 1005.33 1005.78 1006.03 1006.16 1006.07 1005.96 1005.98 1006.05 1006.09 1006.45 1006.47 1006.83 1007.40 1007.92 1008.46 1009.14 1009.82 1010.53 1011.15 1011.66 1012.13 1012.34 1012.62 1012.87 1013.15 1013.49 1013.85
1003.73 1004.19 1005.32 1005.64 1005.69 1005.72 1006.04 1006.16 1006.17 1005.98 1005.90 1006.05 1005.78 1005.70 1005.83 1005.93 1006.34 1006.91 1007.35 1008.05 1008.55 1009.22 1009.93 1010.42 1011.09 1011.39 1011.68 1011.93 1012.29 1012.57 1012.99 1013.18
Thickness
5766 5761 5759 5755 5753 5748 5743 5737 5731 5726 5722 5719 5713 5709 5703 5697 5692 5688 5681 5676 5671 5668 5667 5665 5657 5651 5650 5652 5650 5649 5645 5645
5762 5757 5754 5751 5747 5746 5742 5736 5730 5724 5719 5715 5709 5704 5701 5694 5689 5684 5678 5672 5668 5663 5663 5660 5655 5645 5647 5647 5646 5645 5642 5641
5754 5750 5747 5745 5741 5737 5736 5732 5726 5722 5718 5712 5708 5700 5697 5691 5685 5681 5674 5670 5666 5660 5658 5655 5651 5644 5644 5641 5641 5640 5638 5637
5747 5746 5743 5739 5736 5731 5729 5727 5723 5718 5715 5709 5705 5698 5693 5689 5681 5677 5671 5667 5664 5658 5652 5650 5649 5646 5641 5639 5637 5636 5634 5632
5746 5746 5741 5736 5732 5727 5723 5721 5719 5715 5712 5707 5701 5695 5688 5685 5677 5673 5667 5662 5660 5656 5649 5648 5646 5644 5637 5631 5635 5634 5631 5628
5744 5742 5738 5734 5728 5724 5720 5716 5713 5710 5707 5704 5699 5694 5686 5682 5676 5671 5665 5659 5655 5652 5644 5642 5642 5641 5637 5631 5630 5631 5627 5624
5739 5738 5734 5730 5725 5721 5716 5712 5707 5705 5703 5701 5698 5693 5686 5680 5673 5669 5664 5657 5654 5650 5643 5637 5637 5635 5629 5628 5627 5629 5626 5623
5737 5734 5733 5730 5722 5718 5714 5707 5704 5701 5700 5698 5693 5691 5687 5679 5672 5666 5662 5656 5653 5648 5642 5637 5632 5628 5625 5620 5621 5623 5621 5621
5729 5730 5728 5726 5723 5715 5711 5708 5704 5699 5697 5693 5691 5687 5683 5677 5671 5665 5659 5655 5650 5646 5640 5635 5630 5626 5625 5620 5619 5620 5619 5616
5723 5723 5722 5722 5723 5718 5710 5703 5701 5698 5696 5690 5687 5685 5679 5674 5670 5665 5659 5654 5648 5644 5639 5633 5629 5625 5621 5619 5617 5615 5616 5613
5715 5717 5715 5713 5714 5712 5707 5701 5696 5694 5693 5690 5687 5682 5677 5673 5669 5664 5658 5652 5647 5642 5638 5635 5627 5622 5619 5614 5614 5611 5613 5610
5711 5709 5707 5703 5704 5703 5697 5694 5691 5690 5688 5689 5686 5682 5676 5672 5670 5665 5658 5651 5644 5639 5636 5632 5628 5622 5617 5610 5609 5609 5608 5608
5704 5699 5694 5689 5690 5689 5686 5684 5682 5684 5683 5686 5683 5682 5677 5672 5668 5662 5659 5652 5646 5638 5632 5628 5623 5619 5612 5606 5602 5605 5605 5603
5691 5688 5686 5684 5683 5683 5683 5682 5680 5680 5680 5680 5680 5679 5676 5671 5666 5661 5658 5650 5644 5637 5632 5626 5621 5618 5612 5606 5603 5597 5600 5602
5673 5672 5671 5672 5674 5671 5671 5673 5674 5673 5674 5674 5673 5673 5672 5669 5665 5660 5656 5649 5646 5639 5632 5629 5623 5617 5616 5610 5601 5602 5600 5600
5657 5657 5658 5660 5662 5659 5660 5662 5666 5670 5673 5671 5669 5670 5670 5669 5664 5659 5655 5649 5644 5640 5634 5630 5625 5618 5614 5615 5613 5610 5603 5595
5648 5653 5655 5654 5651 5650 5648 5650 5656 5662 5667 5667 5664 5666 5668 5667 5663 5656 5651 5648 5644 5641 5634 5628 5625 5623 5621 5613 5610 5608 5613 5609
5641 5643 5646 5643 5639 5640 5641 5643 5647 5652 5654 5657 5657 5659 5663 5664 5661 5656 5651 5648 5643 5640 5634 5629 5624 5621 5619 5616 5614 5610 5612 5609
5629 5630 5625 5619 5626 5630 5630 5632 5635 5640 5644 5648 5649 5652 5653 5656 5654 5652 5647 5644 5641 5637 5631 5626 5622 5619 5617 5615 5613 5611 5612 5609
5614 5614 5609 5609 5610 5615 5618 5620 5625 5630 5634 5637 5643 5645 5648 5650 5649 5647 5643 5638 5639 5634 5629 5625 5620 5618 5615 5612 5609 5606 5604 5606